{"data":{"norad_id":58441,"intl_designator":"2023-183E","name":"STARLINK-30942","alt_names":[],"object_type":"PAYLOAD","status":"ACTIVE","operator":null,"country":"US","launch_date":"2023-11-28","launch_site_code":"AFETR","launch_vehicle":null,"mission":null,"orbit_class":"UNKNOWN","rcs_meters":null,"size_class":null,"mass_kg":null,"dimensions":null,"purposes":["comms"],"wikipedia_slug":null,"has_3d_model":false,"image_url":null,"decayed_at":null,"tle_current":{"epoch":"2026-09-20T15:14:59.853408Z","epoch_age_seconds":135049,"freshness":"FRESH","line1":"1 58441U 23183E   26263.63541497 -.00000011  00000+0  91214-5 0  9991","line2":"2 58441  43.0031  20.2548 0000983 282.4729  77.6013 15.27582286156552","mean_motion":15.27582286,"eccentricity":9.83e-5,"inclination_deg":43.0031,"raan_deg":20.2548,"arg_perigee_deg":282.4729,"mean_anomaly_deg":77.6013,"bstar":9.1214e-6,"rev_number":15655,"period_min":94.266607645122,"perigee_km":482.36779702144,"apogee_km":483.71670486217,"semimajor_km":6861.1792509418,"source":"CELESTRAK","updated_at":"2026-09-21T09:00:33.875926Z"}}}